AEE6DS LGAV-LGSR

Flight info

Callsign AEE6DS
Flight time 0h 26m
Altitude 17000
Route KEA UL607 NETIS UM601 PEXAN
Aircraft A320/M-SDE3FGHIRWY/LB1

Departure

Time 2026-05-09 09:12
Airport Athens Eleftherios Venizelos International Airport (LGAV)

Arrival

Time 2026-05-09 09:38
Airport Santorini International Airport (LGSR)
Time Latitude Longitude Altitude Speed Heading
2026-05-09 08:40 37.93696 23.94920 302 ft 0 kts 307°
2026-05-09 09:03 37.93695 23.94921 301 ft 1 kts 307°
2026-05-09 09:03 37.93680 23.94945 302 ft 4 kts 308°
2026-05-09 09:04 37.93668 23.94966 303 ft 4 kts 310°
2026-05-09 09:04 37.93648 23.94987 301 ft 4 kts 345°
2026-05-09 09:04 37.93626 23.94985 303 ft 2 kts 36°
2026-05-09 09:04 37.93625 23.94984 300 ft 0 kts 37°
2026-05-09 09:07 37.93634 23.94992 300 ft 4 kts 37°
2026-05-09 09:07 37.93685 23.95041 301 ft 12 kts 37°
2026-05-09 09:07 37.93758 23.95110 302 ft 14 kts 37°
2026-05-09 09:08 37.93841 23.95192 300 ft 16 kts 45°
2026-05-09 09:08 37.93888 23.95329 302 ft 17 kts 69°
2026-05-09 09:08 37.93969 23.95442 299 ft 19 kts 37°
2026-05-09 09:08 37.94078 23.95544 303 ft 21 kts 37°
2026-05-09 09:09 37.94197 23.95659 302 ft 22 kts 37°
2026-05-09 09:09 37.94326 23.95781 299 ft 24 kts 37°
2026-05-09 09:09 37.94466 23.95915 302 ft 26 kts 37°
2026-05-09 09:09 37.94599 23.96040 301 ft 19 kts 39°
2026-05-09 09:10 37.94604 23.96180 300 ft 17 kts 56°
2026-05-09 09:10 37.94652 23.96297 298 ft 17 kts 125°
2026-05-09 09:10 37.94524 23.96313 292 ft 22 kts 185°
2026-05-09 09:10 37.94430 23.96296 292 ft 0 kts 212°
2026-05-09 09:11 37.94377 23.96251 287 ft 37 kts 216°
2026-05-09 09:11 37.93978 23.95871 283 ft 103 kts 217°
2026-05-09 09:11 37.93265 23.95193 306 ft 149 kts 217°
2026-05-09 09:11 37.92417 23.94463 846 ft 147 kts 208°
2026-05-09 09:12 37.91503 23.93848 1419 ft 150 kts 206°
2026-05-09 09:12 37.90572 23.93252 2046 ft 150 kts 206°
2026-05-09 09:12 37.89955 23.92855 2438 ft 151 kts 207°
2026-05-09 09:12 37.88599 23.91965 2780 ft 181 kts 207°
2026-05-09 09:13 37.87422 23.91174 3027 ft 205 kts 210°
2026-05-09 09:13 37.86089 23.90256 3377 ft 230 kts 208°
2026-05-09 09:13 37.84645 23.89272 4046 ft 239 kts 209°
2026-05-09 09:13 37.83648 23.88598 4669 ft 241 kts 210°
2026-05-09 09:14 37.82170 23.87596 5606 ft 242 kts 211°
2026-05-09 09:14 37.80686 23.86587 6542 ft 243 kts 211°
2026-05-09 09:14 37.79187 23.85565 7412 ft 246 kts 211°
2026-05-09 09:14 37.77648 23.84615 8283 ft 249 kts 200°
2026-05-09 09:15 37.75909 23.84510 9077 ft 264 kts 171°
2026-05-09 09:15 37.74234 23.85642 9645 ft 291 kts 139°
2026-05-09 09:15 37.73015 23.87779 10192 ft 310 kts 125°
2026-05-09 09:15 37.71933 23.90264 10436 ft 335 kts 120°
2026-05-09 09:16 37.70880 23.92963 10882 ft 348 kts 119°
2026-05-09 09:16 37.68733 23.98580 12199 ft 360 kts 119°
2026-05-09 09:16 37.67610 24.01422 12853 ft 365 kts 120°
2026-05-09 09:17 37.66445 24.04294 13532 ft 369 kts 120°
2026-05-09 09:17 37.65251 24.07183 14119 ft 374 kts 121°
2026-05-09 09:17 37.64025 24.10101 14679 ft 379 kts 121°
2026-05-09 09:17 37.62777 24.13049 15282 ft 383 kts 121°
2026-05-09 09:18 37.61518 24.16021 15845 ft 386 kts 121°
2026-05-09 09:18 37.60247 24.19031 16370 ft 391 kts 121°
2026-05-09 09:18 37.58966 24.22078 16884 ft 397 kts 121°
2026-05-09 09:18 37.57675 24.25161 17034 ft 398 kts 121°
2026-05-09 09:19 37.56222 24.28101 17074 ft 392 kts 132°
2026-05-09 09:19 37.54391 24.30609 17072 ft 386 kts 143°
2026-05-09 09:19 37.52269 24.32612 17071 ft 379 kts 153°
2026-05-09 09:19 37.50030 24.34368 17071 ft 379 kts 154°
2026-05-09 09:20 37.47788 24.36121 17066 ft 379 kts 154°
2026-05-09 09:20 37.45545 24.37874 17067 ft 379 kts 154°
2026-05-09 09:20 37.43304 24.39627 17068 ft 379 kts 154°
2026-05-09 09:20 37.41069 24.41378 17054 ft 379 kts 153°
2026-05-09 09:21 37.38831 24.43133 17066 ft 379 kts 154°
2026-05-09 09:21 37.36591 24.44889 17074 ft 380 kts 154°
2026-05-09 09:21 37.34347 24.46648 17077 ft 380 kts 154°
2026-05-09 09:21 37.32102 24.48407 17078 ft 380 kts 154°
2026-05-09 09:22 37.29859 24.50161 17083 ft 379 kts 154°
2026-05-09 09:22 37.27622 24.51908 17084 ft 379 kts 154°
2026-05-09 09:22 37.25379 24.53663 17085 ft 380 kts 154°
2026-05-09 09:22 37.23137 24.55410 17101 ft 379 kts 154°
2026-05-09 09:23 37.20899 24.57154 17120 ft 379 kts 154°
2026-05-09 09:23 37.18656 24.58903 17089 ft 379 kts 154°
2026-05-09 09:23 37.16420 24.60648 17085 ft 379 kts 154°
2026-05-09 09:23 37.14178 24.62392 17065 ft 379 kts 154°
2026-05-09 09:24 37.11938 24.64132 17068 ft 379 kts 154°
2026-05-09 09:24 37.09692 24.65875 17070 ft 380 kts 154°
2026-05-09 09:24 37.07450 24.67614 17017 ft 377 kts 154°
2026-05-09 09:24 37.05250 24.69326 16787 ft 367 kts 154°
2026-05-09 09:25 37.03123 24.70987 16655 ft 354 kts 154°
2026-05-09 09:25 37.01061 24.72593 16502 ft 344 kts 154°
2026-05-09 09:25 36.99038 24.74159 16207 ft 340 kts 154°
2026-05-09 09:25 36.97058 24.75683 15868 ft 337 kts 154°
2026-05-09 09:26 36.95068 24.77214 15527 ft 335 kts 154°
2026-05-09 09:26 36.93092 24.78736 15187 ft 333 kts 154°
2026-05-09 09:26 36.91126 24.80257 14809 ft 332 kts 154°
2026-05-09 09:26 36.89165 24.81779 14421 ft 331 kts 153°
2026-05-09 09:27 36.87200 24.83304 14028 ft 333 kts 154°
2026-05-09 09:27 36.85202 24.84842 13612 ft 333 kts 153°
2026-05-09 09:27 36.83262 24.86335 13225 ft 331 kts 153°
2026-05-09 09:27 36.81307 24.87845 12841 ft 330 kts 153°
2026-05-09 09:28 36.79363 24.89349 12453 ft 328 kts 153°
2026-05-09 09:28 36.77424 24.90849 12062 ft 327 kts 153°
2026-05-09 09:28 36.75493 24.92342 11668 ft 326 kts 153°
2026-05-09 09:28 36.73572 24.93828 11283 ft 325 kts 152°
2026-05-09 09:29 36.71801 24.95592 10894 ft 330 kts 136°
2026-05-09 09:29 36.70498 24.97958 10493 ft 334 kts 117°
2026-05-09 09:29 36.69825 25.00718 10187 ft 333 kts 99°
2026-05-09 09:29 36.69550 25.03542 10050 ft 324 kts 98°
2026-05-09 09:30 36.69267 25.06298 9754 ft 318 kts 98°
2026-05-09 09:30 36.68980 25.09026 9382 ft 317 kts 99°
2026-05-09 09:30 36.68694 25.11727 8873 ft 313 kts 99°
2026-05-09 09:30 36.68410 25.14395 8271 ft 309 kts 99°
2026-05-09 09:31 36.68131 25.17030 7780 ft 303 kts 100°
2026-05-09 09:31 36.67690 25.19575 7385 ft 300 kts 108°
2026-05-09 09:31 36.67145 25.22090 7014 ft 301 kts 108°
2026-05-09 09:32 36.66060 25.27120 6300 ft 301 kts 109°
2026-05-09 09:32 36.65517 25.29632 5921 ft 298 kts 108°
2026-05-09 09:32 36.64990 25.32084 5538 ft 287 kts 108°
2026-05-09 09:32 36.64459 25.34420 5190 ft 273 kts 114°
2026-05-09 09:33 36.63458 25.36328 4807 ft 258 kts 140°
2026-05-09 09:33 36.62009 25.37488 4455 ft 242 kts 161°
2026-05-09 09:33 36.60471 25.38208 4144 ft 231 kts 161°
2026-05-09 09:33 36.59006 25.38901 3866 ft 220 kts 161°
2026-05-09 09:34 36.57580 25.39574 3594 ft 218 kts 161°
2026-05-09 09:34 36.56165 25.40242 3313 ft 216 kts 160°
2026-05-09 09:34 36.54808 25.40886 3014 ft 206 kts 160°
2026-05-09 09:36 36.47102 25.44527 1441 ft 136 kts 157°
2026-05-09 09:36 36.46219 25.44942 1215 ft 135 kts 156°
2026-05-09 09:36 36.45343 25.45356 1038 ft 134 kts 157°
2026-05-09 09:37 36.44463 25.45768 876 ft 135 kts 157°
2026-05-09 09:37 36.43585 25.46180 692 ft 135 kts 157°
2026-05-09 09:37 36.42713 25.46593 557 ft 134 kts 156°
2026-05-09 09:37 36.41848 25.47008 368 ft 132 kts 157°
2026-05-09 09:38 36.40992 25.47412 162 ft 131 kts 157°
2026-05-09 09:38 36.40186 25.47796 88 ft 103 kts 159°
2026-05-09 09:38 36.39812 25.47964 81 ft 13 kts 162°
2026-05-09 09:38 36.39756 25.47892 82 ft 13 kts 249°
2026-05-09 09:39 36.39786 25.47809 83 ft 11 kts 336°
2026-05-09 09:39 36.39793 25.47806 83 ft 1 kts 338°
2026-05-09 09:39 36.39801 25.47802 83 ft 2 kts 339°
2026-05-09 09:39 36.39817 25.47794 87 ft 3 kts 339°
2026-05-09 09:40 36.39843 25.47782 84 ft 5 kts 340°
2026-05-09 09:40 36.39879 25.47766 85 ft 7 kts 339°
2026-05-09 09:40 36.39934 25.47740 88 ft 11 kts 340°
2026-05-09 09:40 36.40012 25.47703 91 ft 13 kts 339°
2026-05-09 09:41 36.40103 25.47660 89 ft 15 kts 339°
2026-05-09 09:41 36.40204 25.47612 90 ft 16 kts 339°
2026-05-09 09:41 36.40273 25.47561 90 ft 10 kts 284°
2026-05-09 09:41 36.40276 25.47483 89 ft 9 kts 315°
2026-05-09 09:42 36.40333 25.47453 91 ft 4 kts 335°
2026-05-09 09:42 36.40352 25.47430 93 ft 4 kts 284°
2026-05-09 09:42 36.40346 25.47396 90 ft 2 kts 256°
2026-05-09 09:42 36.40342 25.47382 90 ft 1 kts 250°
2026-05-09 09:43 36.40340 25.47377 90 ft 0 kts 252°